Location: 3 Angels Observatory
(30.5437°N, 88.5068°W)
Time: 13:01:26
(UTC-05:00)

Oscar 19 - Visible Passes

Search period start: 21 August 2014 00:00
Search period end: 31 August 2014 00:00
Orbit: 775 x 791 km, 98.5° (Epoch: 21 August)

Date Brightness Start Highest point End Pass type
(mag) Time Alt. Az. Time Alt. Az. Time Alt. Az.
21 Aug 13.0 03:02:58 10° N 03:04:04 16° N 03:04:04 16° N visible
22 Aug 13.3 02:31:10 10° NNE 02:32:03 15° NNE 02:32:03 15° NNE visible
23 Aug 13.6 01:59:54 10° NNE 02:00:01 11° NNE 02:00:01 11° NNE visible
23 Aug 13.2 03:40:22 10° NNW 03:40:35 11° NNW 03:40:35 11° NNW visible
24 Aug 13.1 03:07:45 10° N 03:08:34 14° N 03:08:34 14° N visible
25 Aug 13.3 02:35:52 10° N 02:36:33 14° N 02:36:33 14° N visible
26 Aug 13.7 02:04:31 10° NNE 02:04:31 10° NNE 02:04:31 10° NNE visible
27 Aug 13.2 03:12:34 10° N 03:13:04 12° NNW 03:13:04 12° NNW visible
28 Aug 13.4 02:40:36 10° N 02:41:02 13° N 02:41:02 13° N visible
30 Aug 13.3 03:17:23 10° NNW 03:17:33 11° NNW 03:17:33 11° NNW visible
